Galax, VA

1:23 PM EST on November 18, 2017 (GMT -0500)
Twin County

Weather History for KHLX - December, 2013

Change the Weather History Date:

Monday, December 30, 2013

  Actual Average (KBLF) Record (KBLF)
Temperature  
Mean Temperature 36 °F -  
Max Temperature 39 °F 41 °F 68 °F (1990)
Min Temperature 32 °F 27 °F 2 °F (1983)
Degree Days  
Heating Degree Days 30    
Moisture  
Dew Point 30 °F    
Average Humidity 77    
Maximum Humidity 81    
Minimum Humidity 70    
Precipitation  
Precipitation 0.00 in - - ()
Sea Level Pressure  
Sea Level Pressure 30.04 in    
Wind  
Wind Speed 11 mph (WNW)    
Max Wind Speed 17 mph    
Max Gust Speed 30 mph    
Visibility 10 miles    
Events      
Averages and records for this station are not official NWS values.
T = Trace of Precipitation, MM = Missing Value Source: NWS Daily Summary

Daily Weather History Graph

Daily Weather History Graph

Search for Another Location

Airport or City:

Trip Planner

Search our weather history database for the weather conditions in past years. The results will help you decide how hot, cold, wet, or windy it might be!

Date:

Astronomy

Dec. 30, 2013 Rise Set
Actual Time 7:35 AM EST 5:16 PM EST
Civil Twilight 7:06 AM EST 5:45 PM EST
Nautical Twilight 6:34 AM EST 6:17 PM EST
Astronomical Twilight 6:02 AM EST 6:49 PM EST
Moon 5:25 AM EST (12/30) 3:47 PM EST (12/30)
Length of Visible Light 10h 38m
Length of Day
9h 40m
Waning Crescent, 5% of the Moon is Illuminated
Dec 30
Waning Crescent
Jan 1
New
Jan 7
First Quarter
Jan 15
Full
Jan 24
Last Quarter

Hourly Weather History & Observations

Time (EST) Temp. Windchill Dew Point Humidity Pressure Visibility Wind Dir Wind Speed Gust Speed Precip Events Conditions
12:15 AM 39.2 °F 30.2 °F 32.0 °F 75% 29.94 in 10.0 mi NW 17.3 mph 29.9 mph N/A   Overcast
12:35 AM 39.2 °F 33.6 °F 30.2 °F 70% 29.94 in 10.0 mi NW 8.1 mph 24.2 mph N/A   Overcast
12:55 AM 37.4 °F 28.2 °F 30.2 °F 75% 29.94 in 10.0 mi WNW 16.1 mph 21.9 mph N/A   Mostly Cloudy
1:15 AM 37.4 °F 28.5 °F 30.2 °F 75% 29.93 in 10.0 mi NW 15.0 mph - N/A   Scattered Clouds
1:35 AM 37.4 °F 28.5 °F 30.2 °F 75% 29.94 in 10.0 mi WNW 15.0 mph 19.6 mph N/A   Clear
1:55 AM 37.4 °F 27.8 °F 32.0 °F 81% 29.94 in 10.0 mi WNW 17.3 mph 24.2 mph N/A   Clear
2:15 AM 37.4 °F 29.3 °F 32.0 °F 81% 29.95 in 10.0 mi WNW 12.7 mph 18.4 mph N/A   Scattered Clouds
2:35 AM 37.4 °F 28.9 °F 32.0 °F 81% 29.95 in 10.0 mi WNW 13.8 mph - N/A   Overcast
2:55 AM 37.4 °F 29.3 °F 32.0 °F 81% 29.95 in 10.0 mi WNW 12.7 mph - N/A   Overcast
3:15 AM 37.4 °F 29.8 °F 32.0 °F 81% 29.95 in 10.0 mi WNW 11.5 mph - N/A   Overcast
3:35 AM 39.2 °F 33.0 °F 33.8 °F 81% 29.96 in 10.0 mi WNW 9.2 mph - N/A   Overcast
3:55 AM 39.2 °F 33.6 °F 33.8 °F 81% 29.96 in 10.0 mi West 8.1 mph - N/A   Overcast
4:15 AM 39.2 °F 33.0 °F 33.8 °F 81% 29.95 in 10.0 mi West 9.2 mph - N/A   Overcast
4:35 AM 39.2 °F 31.6 °F 33.8 °F 81% 29.96 in 10.0 mi West 12.7 mph 17.3 mph N/A   Overcast
4:55 AM 39.2 °F 33.0 °F 33.8 °F 81% 29.96 in 10.0 mi West 9.2 mph - N/A   Overcast
5:15 AM 39.2 °F 33.0 °F 33.8 °F 81% 29.97 in 10.0 mi West 9.2 mph - N/A   Overcast
5:35 AM 39.2 °F 32.5 °F 32.0 °F 75% 29.97 in 10.0 mi West 10.4 mph - N/A   Overcast
5:55 AM 39.2 °F 31.2 °F 32.0 °F 75% 29.97 in 10.0 mi WNW 13.8 mph 20.7 mph N/A   Overcast
6:15 AM 39.2 °F 30.5 °F 32.0 °F 75% 29.97 in 10.0 mi West 16.1 mph 21.9 mph N/A   Overcast
6:35 AM 39.2 °F 31.6 °F 32.0 °F 75% 29.98 in 10.0 mi West 12.7 mph 20.7 mph N/A   Overcast
6:55 AM 39.2 °F 32.5 °F 32.0 °F 75% 29.98 in 10.0 mi WNW 10.4 mph 18.4 mph N/A   Scattered Clouds
7:15 AM 39.2 °F 32.0 °F 32.0 °F 75% 29.98 in 10.0 mi WNW 11.5 mph 24.2 mph N/A   Scattered Clouds
7:35 AM 39.2 °F 34.2 °F 32.0 °F 75% 29.98 in 10.0 mi West 6.9 mph 18.4 mph N/A   Scattered Clouds
7:55 AM 39.2 °F 33.0 °F 32.0 °F 75% 30.00 in 10.0 mi West 9.2 mph - N/A   Mostly Cloudy
8:15 AM 39.2 °F 31.6 °F 32.0 °F 75% 30.00 in 10.0 mi WNW 12.7 mph 19.6 mph N/A   Overcast
8:35 AM 39.2 °F 31.2 °F 32.0 °F 75% 30.01 in 10.0 mi WNW 13.8 mph 19.6 mph N/A   Overcast
8:55 AM 39.2 °F 30.5 °F 32.0 °F 75% 30.03 in 10.0 mi WNW 16.1 mph 21.9 mph N/A   Overcast
9:15 AM 39.2 °F 31.6 °F 33.8 °F 81% 30.05 in 10.0 mi West 12.7 mph 21.9 mph N/A   Overcast
9:35 AM 39.2 °F 31.6 °F 33.8 °F 81% 30.06 in 10.0 mi NW 12.7 mph 18.4 mph N/A   Overcast
9:55 AM 37.4 °F 32.1 °F 32.0 °F 81% 30.07 in 10.0 mi NW 6.9 mph - N/A   Overcast
10:15 AM 37.4 °F 28.5 °F 30.2 °F 75% 30.07 in 10.0 mi WNW 15.0 mph - N/A   Overcast
10:35 AM 37.4 °F 30.3 °F 30.2 °F 75% 30.07 in 10.0 mi WNW 10.4 mph - N/A   Overcast
10:55 AM 37.4 °F 32.1 °F 30.2 °F 75% 30.06 in 10.0 mi North 6.9 mph - N/A   Overcast
11:15 AM 37.4 °F 31.4 °F 30.2 °F 75% 30.06 in 10.0 mi WNW 8.1 mph - N/A   Overcast
11:35 AM 37.4 °F 32.1 °F 30.2 °F 75% 30.06 in 10.0 mi WNW 6.9 mph - N/A   Overcast
11:55 AM 37.4 °F 29.8 °F 30.2 °F 75% 30.07 in 10.0 mi WNW 11.5 mph 16.1 mph N/A   Overcast
12:15 PM 37.4 °F 30.3 °F 30.2 °F 75% 30.06 in 10.0 mi WNW 10.4 mph - N/A   Overcast
12:35 PM 37.4 °F 29.8 °F 28.4 °F 70% 30.06 in 10.0 mi WNW 11.5 mph - N/A   Overcast
12:55 PM 35.6 °F 27.5 °F 28.4 °F 75% 30.07 in 10.0 mi NW 11.5 mph 16.1 mph N/A   Overcast
1:15 PM 35.6 °F 26.6 °F 28.4 °F 75% 30.06 in 10.0 mi WNW 13.8 mph 18.4 mph N/A   Overcast
1:35 PM 35.6 °F 28.0 °F 28.4 °F 75% 30.06 in 10.0 mi WNW 10.4 mph - N/A   Overcast
1:55 PM 35.6 °F 28.6 °F 28.4 °F 75% 30.06 in 10.0 mi West 9.2 mph - N/A   Overcast
2:15 PM 35.6 °F 26.2 °F 28.4 °F 75% 30.07 in 10.0 mi WNW 15.0 mph 20.7 mph N/A   Overcast
2:35 PM 33.8 °F 24.8 °F 28.4 °F 81% 30.06 in 10.0 mi NW 12.7 mph - N/A   Overcast
2:55 PM 33.8 °F 25.8 °F 28.4 °F 81% 30.06 in 10.0 mi WNW 10.4 mph - N/A   Overcast
3:15 PM 33.8 °F 25.8 °F 28.4 °F 81% 30.07 in 10.0 mi WNW 10.4 mph - N/A   Overcast
3:35 PM 33.8 °F 27.7 °F 28.4 °F 81% 30.07 in 10.0 mi WNW 6.9 mph - N/A   Overcast
3:55 PM 33.8 °F 27.0 °F 28.4 °F 81% 30.08 in 10.0 mi WNW 8.1 mph - N/A   Overcast
4:15 PM 33.8 °F 27.7 °F 28.4 °F 81% 30.07 in 10.0 mi NW 6.9 mph - N/A   Overcast
4:35 PM 33.8 °F 27.7 °F 28.4 °F 81% 30.07 in 10.0 mi NW 6.9 mph - N/A   Overcast
4:55 PM 33.8 °F 25.8 °F 28.4 °F 81% 30.07 in 10.0 mi NW 10.4 mph - N/A   Mostly Cloudy
5:15 PM 33.8 °F 27.7 °F 28.4 °F 81% 30.07 in 10.0 mi WNW 6.9 mph - N/A   Mostly Cloudy
5:35 PM 33.8 °F 28.6 °F 26.6 °F 75% 30.08 in 10.0 mi WNW 5.8 mph - N/A   Mostly Cloudy
5:55 PM 33.8 °F 27.7 °F 26.6 °F 75% 30.09 in 10.0 mi WNW 6.9 mph - N/A   Mostly Cloudy
6:15 PM 33.8 °F 26.4 °F 26.6 °F 75% 30.10 in 10.0 mi NW 9.2 mph - N/A   Scattered Clouds
6:35 PM 33.8 °F 27.0 °F 26.6 °F 75% 30.09 in 10.0 mi NW 8.1 mph - N/A   Scattered Clouds
6:55 PM 33.8 °F 25.8 °F 26.6 °F 75% 30.10 in 10.0 mi WNW 10.4 mph - N/A   Clear
7:15 PM 33.8 °F 27.7 °F 26.6 °F 75% 30.09 in 10.0 mi WNW 6.9 mph - N/A   Scattered Clouds
7:35 PM 33.8 °F 29.6 °F 26.6 °F 75% 30.09 in 10.0 mi WNW 4.6 mph - N/A   Mostly Cloudy
7:55 PM 33.8 °F 28.6 °F 26.6 °F 75% 30.11 in 10.0 mi WNW 5.8 mph - N/A   Overcast
8:15 PM 33.8 °F - 26.6 °F 75% 30.11 in 10.0 mi Calm Calm - N/A   Scattered Clouds
8:35 PM 33.8 °F - 26.6 °F 75% 30.11 in 10.0 mi Calm Calm - N/A   Mostly Cloudy
8:55 PM 32.0 °F 27.5 °F 26.6 °F 80% 30.10 in 10.0 mi NNW 4.6 mph - N/A   Mostly Cloudy
9:15 PM 32.0 °F 27.5 °F 26.6 °F 80% 30.11 in 10.0 mi NW 4.6 mph - N/A   Mostly Cloudy
9:35 PM 32.0 °F 28.7 °F 26.6 °F 80% 30.10 in 10.0 mi WNW 3.5 mph - N/A   Overcast
9:55 PM 32.0 °F - 26.6 °F 80% 30.11 in 10.0 mi Calm Calm - N/A   Overcast
10:15 PM 32.0 °F 28.7 °F 26.6 °F 80% 30.10 in 10.0 mi West 3.5 mph - N/A   Overcast
10:35 PM 32.0 °F 26.4 °F 26.6 °F 80% 30.11 in 10.0 mi NW 5.8 mph - N/A   Overcast
10:55 PM 32.0 °F 25.6 °F 26.6 °F 80% 30.11 in 10.0 mi NW 6.9 mph - N/A   Overcast
11:15 PM 32.0 °F 26.4 °F 26.6 °F 80% 30.11 in 10.0 mi WNW 5.8 mph - N/A   Overcast
11:35 PM 32.0 °F 27.5 °F 26.6 °F 80% 30.11 in 10.0 mi WNW 4.6 mph - N/A   Overcast
11:55 PM 33.8 °F 30.8 °F 26.6 °F 75% 30.10 in 10.0 mi West 3.5 mph - N/A   Overcast